Regional Weather Roundup
Issued by NWS

Home | Current Version | Previous Version | Text Only | Print | Product List | Glossary Off
Versions: 1 2 3 4 5 6 7 8 9 10 11 12 13 14 15 16 17 18 19 20 21 22 23 24 25 26 27 28 29 30 31 32 33 34 35 36 37 38 39 40 41 42 43 44 45 46 47 48 49 50

023
ASUS43 KIND 230209
RWRIN

WEATHER ROUNDUP FOR INDIANA
NATIONAL WEATHER SERVICE INDIANAPOLIS IN
1000 PM EDT WED MAR 22 2017

NOTE: "FAIR" INDICATES FEW OR NO CLOUDS BELOW 12,000 FEET WITH NO
SIGNIFICANT WEATHER AND/OR OBSTRUCTIONS TO VISIBILITY.

* - STATION DOES NOT REPORT WEATHER SUCH AS PRECIPITATION OR FOG.

+ - STATION NOT QUALITY CONTROLLED BY THE NATIONAL WEATHER SERVICE.
    USE DATA WITH CAUTION...ESPECIALLY DEWPOINT AND RELATIVE
    HUMIDITY OBSERVATIONS.

INZ001>003-010>013-019-020-230300-
NORTHWEST INDIANA

CITY           SKY/WX    TMP DP  RH WIND       PRES   REMARKS
GARY /AIRPORT/ MOCLDY    32  21  64 E10       30.51S WCI  24
KNOX *+        CLOUDY    32  -6  19 CALM      30.49S
LA PORTE +     PTCLDY    29  21  71 NE3       30.50S
MICHIGAN CITY+ PTCLDY    30  23  74 CALM      30.51S
MONTICELLO +   CLEAR     32  18  57 E3        30.48S
RENSSELAER +     N/A     32  21  64 E7        30.49R WCI  26
VALPARAISO     CLOUDY    30  22  72 NE3       30.49S

$$

LMZ046-743>745-230300-
SOUTHERN LAKE MICHIGAN

STATION/POSITION TIME  TEMP    WIND        PRES    WAVE
                       AIR SEA DIR/SP/G            HT
                 (UTC) (F)     (DEG/KT/KT) (MB)    (FT)
BURNS HARBOR     0119   31      60/ 12/ 14 1033.2S
MICHIGAN CITY    0140   31      70/  7/  9   N/A

$$

INZ004-005-014>016-021>024-230300-
NORTH CENTRAL INDIANA

CITY           SKY/WX    TMP DP  RH WIND       PRES   REMARKS
GOSHEN         PTCLDY    31  13  47 SE5       30.50R WCI  26
LOGANSPORT +   CLEAR     30  21  69 E6        30.50R WCI  24
PERU/GRISSOM   PTCLDY    32  18  56 E7        30.47S WCI  26
ROCHESTER +    CLOUDY    32  19  59 E6        30.50R WCI  26
SOUTH BEND     PTCLDY    32  13  45 E5        30.50S WCI  27
WARSAW +       PTCLDY    30  18  59 SE3       30.49F

$$

INZ006>009-017-018-025>027-230300-
NORTHEAST INDIANA

CITY           SKY/WX    TMP DP  RH WIND       PRES   REMARKS
ANGOLA *+      CLEAR     28  16  59 SE5       30.50R WCI  23
AUBURN +       PTCLDY    30  14  51 E5        30.52S WCI  25
FORT WAYNE     MOCLDY    30  18  60 E7        30.51R WCI  23
HUNTINGTON +   CLOUDY    30  17  59 E5        30.50F WCI  25
KENDALLVILLE + PTCLDY    29  15  55 SE5       30.50S WCI  24

$$

INZ028-029-035-036-043>045-051>053-230300-
WEST CENTRAL INDIANA

CITY           SKY/WX    TMP DP  RH WIND       PRES   REMARKS
CRAWFORDSVL +  CLEAR     30  22  70 E6        30.47R WCI  24
GREENCASTLE +  CLEAR     32  19  59 E6        30.46R WCI  26
LAFAYETTE      CLEAR     32  20  61 E12       30.48R WCI  23
TERRE HAUTE    CLOUDY    33  20  58 E7        30.46R WCI  27

$$

INZ030>032-037>040-046>048-054>057-064-065-230300-
CENTRAL INDIANA

CITY           SKY/WX    TMP DP  RH WIND       PRES   REMARKS
CP ATTERBURY + CLEAR     34  23  64 E8        30.48R WCI  27
COLUMBUS       CLEAR     32  23  69 NE7       30.47R WCI  26
FISHERS *+     CLEAR     32  23  69 E3        30.48R
FRANKFORT +    CLEAR     34  24  66 E9        30.48S WCI  27
INDIANAPOLIS   PTCLDY    35  20  54 E12       30.46R WCI  27
-EAGLE CREEK   CLEAR     34  19  54 E8        30.46R WCI  27
KOKOMO +       PTCLDY    31  24  75 E9        30.49S WCI  23
MARION +       CLOUDY    31  21  65 E5        30.49F WCI  26
MT COMFORT *+  CLEAR     28  21  74 E7        30.48R WCI  21
SHELBYVILLE    CLEAR     33  22  63 NE8       30.47R WCI  26
ZIONSVILLE +   CLEAR     31  22  68 E6        30.47S WCI  26

$$

INZ033-034-041-042-049-050-058-059-230300-
EAST CENTRAL INDIANA

CITY           SKY/WX    TMP DP  RH WIND       PRES   REMARKS
MUNCIE         CLOUDY    32  21  64 E8        30.48S WCI  25
RICHMOND +     CLOUDY    30  23  74 NE10      30.47S WCI  21

$$

INZ060-061-067>069-081>083-085>088-230300-
SOUTHWEST INDIANA

CITY           SKY/WX    TMP DP  RH WIND       PRES   REMARKS
EVANSVILLE     CLEAR     42  20  41 NE9       30.41R
HUNTINGBURG *+ CLEAR     38  19  46 NE8       30.43R
WASHINGTON +   CLEAR     38  20  48 MISG      30.45R

$$

INZ062-063-066-070>080-084-089>092-230300-
SOUTH CENTRAL AND SOUTHEAST INDIANA

CITY           SKY/WX    TMP DP  RH WIND       PRES   REMARKS
BEDFORD +      PTCLDY    36  18  48 NE5       30.43R
BLOOMINGTON    PTCLDY    36  18  48 E8        30.44R
MADISON *+     CLEAR     36  18  48 E7        30.46S
NORTH VERNON + PTCLDY    36  21  55 NE6       30.46R
SEYMOUR +      CLEAR     34  21  60 NE7       30.46R WCI  28

$$





USA.gov is the U.S. government's official web portal to all federal, state and local government web resources and services.